"Pseudo-MPEC" for P11pavH

Created 2021 Dec 4 8:07:29 UT using Find_Orb

Click here for an explanation of pseudo-MPECs

 
 Astrometry: 
     P11pavH  C2021 11 22PQ:A+#s8USt;AstrometrycJ\S3bS`A#hRd\C-v$.redacted;/HF51
     P11pavH  C2021 11 22HnA-[N'P8,gE?ORZJUHVt^y'ZXclick6ag8c\^CTf$*Xhere0q#PF51
     P11pavH  C2021 11 220dK?f'9J[u_meforZ#cpv!9*ghF(:#2:3v?explanation-!Fg6AF51

Station data:
(F51) Pan-STARRS 1, Haleakala  (N20.707235 W156.255910)  US/Hawaii.
   Observers N. Primak, A. Schultz, S. Watters, J. Thiel, T. Goggia. Measurer
   PS1 Science Consortium. 1.8-m Ritchey-Chrétien + CCD.

Orbital elements:  P11pavH
   Perihelion 2021 Jul 1.847526 +/- 69.0815 TT = 20:20:26 (JD 2459397.347526)
Epoch 2021 Nov 22.0 TT = JDT 2459540.5   Earth MOID: 0.0318   Ve: 0.0699
M 163.12040945 +/- 108.61731        (J2000 ecliptic)          AutoNEOCP
n   1.13948717 +/- 0.576871         Peri.  185.56130 +/- 88.248067
a   0.90781304 +/- 0.306384         Node    66.95840 +/- 62.676450
e   0.1243230 +/- 0.259955          Incl.    5.61845 +/- 30.219525
P   0.86/315.93d           H 26.1   G  0.15   U 12.4  SR
q 0.79495099 +/- 0.326174    Q 1.02067509 +/- 14.9643
From 3 observations 2021 Nov. 22 (35.6 min); mean residual 0".44
Residuals in arcseconds: 
211122 F51  .39+  .21-    211122 F51  .78-  .42+    211122 F51  .39+  .21-    

Ephemerides (geocentric):
Date (UTC) HH   RA              Dec         delta   r     elong  mag " sig PA
---- -- -- --  -------------   -----------  ------ ------ -----  --- ---- ---
2021 12 04 08  01 37 42.585   +17 50 08.67  .04730 1.0205 136.6 21.1  43d   6
2021 12 04 09  01 37 28.232   +17 53 10.37  .04738 1.0205 136.5 21.2  43d   6
2021 12 04 10  01 37 13.927   +17 56 11.46  .04745 1.0205 136.4 21.2  43d   6
2021 12 04 11  01 36 59.671   +17 59 11.96  .04753 1.0205 136.3 21.2  43d   6
2021 12 04 12  01 36 45.463   +18 02 11.86  .04760 1.0205 136.2 21.2  43d   6
2021 12 04 13  01 36 31.304   +18 05 11.16  .04768 1.0205 136.1 21.2  43d   6
2021 12 04 14  01 36 17.192   +18 08 09.87  .04775 1.0205 136.1 21.2  43d   6
2021 12 04 15  01 36 03.129   +18 11 08.00  .04783 1.0205 136.0 21.2  43d   6
2021 12 04 16  01 35 49.114   +18 14 05.54  .04791 1.0205 135.9 21.2  44d   5
2021 12 04 17  01 35 35.146   +18 17 02.49  .04798 1.0205 135.8 21.2  44d   5
2021 12 04 18  01 35 21.227   +18 19 58.86  .04806 1.0206 135.7 21.2  44d   5
2021 12 04 19  01 35 07.355   +18 22 54.65  .04813 1.0206 135.6 21.2  46d   4
2021 12 04 20  01 34 53.530   +18 25 49.87  .04821 1.0206 135.6 21.2  43d   5
2021 12 04 21  01 34 39.752   +18 28 44.50  .04829 1.0206 135.5 21.2  43d   6
2021 12 04 22  01 34 26.022   +18 31 38.57  .04836 1.0206 135.4 21.2  43d   6
2021 12 04 23  01 34 12.339   +18 34 32.06  .04844 1.0206 135.3 21.2  43d   6
2021 12 05 00  01 33 58.703   +18 37 24.99  .04852 1.0206 135.2 21.2  43d   6
2021 12 05 01  01 33 45.114   +18 40 17.35  .04859 1.0206 135.1 21.2  43d   6
2021 12 05 02  01 33 31.571   +18 43 09.14  .04867 1.0206 135.1 21.2  43d   6
2021 12 05 03  01 33 18.075   +18 46 00.37  .04875 1.0206 135.0 21.3  43d   6
2021 12 05 04  01 33 04.626   +18 48 51.05  .04882 1.0206 134.9 21.3  43d   6
2021 12 05 05  01 32 51.223   +18 51 41.16  .04890 1.0206 134.8 21.3  43d   6
2021 12 05 06  01 32 37.866   +18 54 30.72  .04898 1.0206 134.7 21.3  43d   6
2021 12 05 07  01 32 24.555   +18 57 19.73  .04905 1.0206 134.7 21.3  43d   6
2021 12 05 08  01 32 11.290   +19 00 08.19  .04913 1.0206 134.6 21.3  43d   6
2021 12 05 09  01 31 58.071   +19 02 56.10  .04921 1.0206 134.5 21.3  43d   6
2021 12 05 10  01 31 44.897   +19 05 43.46  .04929 1.0206 134.4 21.3  43d   6
2021 12 05 11  01 31 31.770   +19 08 30.28  .04936 1.0206 134.3 21.3  43d   6
2021 12 05 12  01 31 18.687   +19 11 16.56  .04944 1.0206 134.2 21.3  43d   6
2021 12 05 13  01 31 05.650   +19 14 02.29  .04952 1.0206 134.2 21.3  43d   6
2021 12 05 14  01 30 52.659   +19 16 47.49  .04960 1.0206 134.1 21.3  43d   6
2021 12 05 15  01 30 39.712   +19 19 32.16  .04967 1.0206 134.0 21.3  43d   6
2021 12 05 16  01 30 26.811   +19 22 16.29  .04975 1.0206 133.9 21.3  43d   6
2021 12 05 17  01 30 13.954   +19 24 59.89  .04983 1.0206 133.8 21.3  43d   6
2021 12 05 18  01 30 01.142   +19 27 42.96  .04991 1.0206 133.8 21.3  43d   6
2021 12 05 19  01 29 48.374   +19 30 25.51  .04999 1.0206 133.7 21.3  43d   6
2021 12 05 20  01 29 35.651   +19 33 07.53  .05006 1.0206 133.6 21.3  43d   6
2021 12 05 21  01 29 22.973   +19 35 49.03  .05014 1.0206 133.5 21.4  43d   6
2021 12 05 22  01 29 10.338   +19 38 30.01  .05022 1.0206 133.4 21.4  43d   6
2021 12 05 23  01 28 57.748   +19 41 10.47  .05030 1.0206 133.4 21.4  43d   6
2021 12 06 00  01 28 45.202   +19 43 50.41  .05038 1.0206 133.3 21.4  43d   6
2021 12 06 01  01 28 32.699   +19 46 29.85  .05046 1.0206 133.2 21.4  43d   6
2021 12 06 02  01 28 20.241   +19 49 08.77  .05054 1.0206 133.1 21.4  43d   6
2021 12 06 03  01 28 07.826   +19 51 47.18  .05061 1.0206 133.0 21.4  43d   6
2021 12 06 04  01 27 55.454   +19 54 25.08  .05069 1.0206 133.0 21.4  43d   6
2021 12 06 05  01 27 43.126   +19 57 02.48  .05077 1.0206 132.9 21.4  43d   6
2021 12 06 06  01 27 30.841   +19 59 39.38  .05085 1.0206 132.8 21.4  43d   6
2021 12 06 07  01 27 18.599   +20 02 15.78  .05093 1.0206 132.7 21.4  43d   6